Time,TemperatureF,DewpointF,PressureIn,WindDirection,WindDirectionDegrees,WindSpeedMPH,WindSpeedGustMPH,Humidity,HourlyPrecipIn,Conditions,Clouds,dailyrainin,SoftwareType,DateUTC
2013-10-27 00:01:00,51.4,34.5,29.90,SSW,199,2.3,10.5,52,0.00,,,0.00,WUHU21623XXSP,2013-10-27 04:01:00,
2013-10-27 00:02:00,51.4,34.5,29.90,South,180,1.6,10.5,52,0.00,,,0.00,WUHU21623XXSP,2013-10-27 04:02:00,
2013-10-27 00:07:00,51.4,34.5,29.90,South,191,1.6,8.5,52,0.00,,,0.00,WUHU21623XXSP,2013-10-27 04:07:00,
2013-10-27 00:12:00,51.4,34.0,29.90,SSW,196,2.3,10.1,51,0.00,,,0.00,WUHU21623XXSP,2013-10-27 04:12:00,
2013-10-27 00:17:00,51.4,34.5,29.90,West,270,5.1,14.3,52,0.00,,,0.00,WUHU21623XXSP,2013-10-27 04:17:00,
2013-10-27 00:22:00,51.4,34.5,29.89,SW,225,0.3,14.3,52,0.00,,,0.00,WUHU21623XXSP,2013-10-27 04:22:00,
2013-10-27 00:27:00,51.3,34.4,29.89,SW,225,2.2,9.2,52,0.00,,,0.00,WUHU21623XXSP,2013-10-27 04:27:00,
2013-10-27 00:32:00,51.3,34.4,29.89,SW,225,1.0,9.2,52,0.00,,,0.00,WUHU21623XXSP,2013-10-27 04:32:00,
2013-10-27 00:37:00,51.3,34.4,29.89,SW,225,3.8,5.1,52,0.00,,,0.00,WUHU21623XXSP,2013-10-27 04:37:00,
2013-10-27 00:42:00,51.3,34.4,29.89,SSW,202,1.1,5.1,52,0.00,,,0.00,WUHU21623XXSP,2013-10-27 04:42:00,
2013-10-27 00:47:00,51.3,34.4,29.89,SW,225,1.6,4.5,52,0.00,,,0.00,WUHU21623XXSP,2013-10-27 04:47:00,
2013-10-27 00:52:00,51.3,33.9,29.89,SW,225,4.7,4.7,51,0.00,,,0.00,WUHU21623XXSP,2013-10-27 04:52:00,
2013-10-27 00:57:00,51.3,34.4,29.89,SSW,202,0.1,4.7,52,0.00,,,0.00,WUHU21623XXSP,2013-10-27 04:57:00,
2013-10-27 01:02:00,51.3,34.4,29.88,SW,225,1.6,2.9,52,0.00,,,0.00,WUHU21623XXSP,2013-10-27 05:02:00,
2013-10-27 01:07:00,51.3,33.9,29.88,SW,225,2.5,3.4,51,0.00,,,0.00,WUHU21623XXSP,2013-10-27 05:07:00,
2013-10-27 01:12:00,51.1,34.2,29.89,SSW,202,1.6,6.5,52,0.00,,,0.00,WUHU21623XXSP,2013-10-27 05:12:00,
2013-10-27 01:17:00,51.1,34.2,29.89,SSW,202,1.1,6.5,52,0.00,,,0.00,WUHU21623XXSP,2013-10-27 05:17:00,
2013-10-27 01:22:00,51.1,34.2,29.89,SW,225,2.5,5.1,52,0.00,,,0.00,WUHU21623XXSP,2013-10-27 05:22:00,
2013-10-27 01:27:00,51.1,34.2,29.89,SW,225,0.0,5.1,52,0.00,,,0.00,WUHU21623XXSP,2013-10-27 05:27:00,
2013-10-27 01:32:00,50.9,34.0,29.89,SW,225,0.9,3.6,52,0.00,,,0.00,WUHU21623XXSP,2013-10-27 05:32:00,
2013-10-27 01:37:00,50.9,34.5,29.89,West,270,2.9,2.9,53,0.00,,,0.00,WUHU21623XXSP,2013-10-27 05:37:00,
2013-10-27 01:42:00,50.9,34.5,29.89,SW,232,1.5,4.7,53,0.00,,,0.00,WUHU21623XXSP,2013-10-27 05:42:00,
2013-10-27 01:47:00,50.7,34.8,29.89,SW,225,0.0,4.7,54,0.00,,,0.00,WUHU21623XXSP,2013-10-27 05:47:00,
2013-10-27 01:52:00,50.7,35.3,29.88,SW,225,0.9,4.3,55,0.00,,,0.00,WUHU21623XXSP,2013-10-27 05:52:00,
2013-10-27 01:57:00,50.7,35.3,29.88,SW,225,0.3,3.8,55,0.00,,,0.00,WUHU21623XXSP,2013-10-27 05:57:00,
2013-10-27 02:03:00,50.5,35.5,29.88,SW,225,0.0,3.8,56,0.00,,,0.00,WUHU21623XXSP,2013-10-27 06:03:00,
2013-10-27 02:08:00,50.5,36.0,29.88,SW,225,1.1,3.6,57,0.00,,,0.00,WUHU21623XXSP,2013-10-27 06:08:00,
2013-10-27 02:13:00,50.4,35.9,29.88,SW,225,1.0,3.6,57,0.00,,,0.00,WUHU21623XXSP,2013-10-27 06:13:00,
2013-10-27 02:18:00,50.4,35.9,29.88,SW,225,0.4,3.1,57,0.00,,,0.00,WUHU21623XXSP,2013-10-27 06:18:00,
2013-10-27 02:23:00,50.2,36.2,29.88,SW,225,0.2,2.9,58,0.00,,,0.00,WUHU21623XXSP,2013-10-27 06:23:00,
2013-10-27 02:28:00,50.2,36.2,29.88,SW,225,0.0,2.5,58,0.00,,,0.00,WUHU21623XXSP,2013-10-27 06:28:00,
2013-10-27 02:33:00,50.2,36.2,29.88,SW,225,0.1,2.0,58,0.00,,,0.00,WUHU21623XXSP,2013-10-27 06:33:00,
2013-10-27 02:38:00,49.8,35.8,29.88,SW,225,0.4,3.4,58,0.00,,,0.00,WUHU21623XXSP,2013-10-27 06:38:00,
2013-10-27 02:43:00,49.6,35.6,29.88,SW,225,2.0,12.8,58,0.00,,,0.00,WUHU21623XXSP,2013-10-27 06:43:00,
2013-10-27 02:48:00,49.6,35.6,29.88,SW,225,0.2,12.8,58,0.00,,,0.00,WUHU21623XXSP,2013-10-27 06:48:00,
2013-10-27 02:53:00,49.6,36.0,29.88,SW,225,0.3,3.1,59,0.00,,,0.00,WUHU21623XXSP,2013-10-27 06:53:00,
2013-10-27 02:58:00,49.5,35.9,29.88,SW,225,0.0,1.6,59,0.00,,,0.00,WUHU21623XXSP,2013-10-27 06:58:00,
2013-10-27 03:03:00,49.5,35.9,29.86,SW,225,1.1,1.6,59,0.00,,,0.00,WUHU21623XXSP,2013-10-27 07:03:00,
2013-10-27 03:08:00,49.3,36.2,29.88,SW,225,0.1,2.0,60,0.00,,,0.00,WUHU21623XXSP,2013-10-27 07:08:00,
2013-10-27 03:13:00,49.3,36.2,29.86,SW,225,0.0,2.0,60,0.00,,,0.00,WUHU21623XXSP,2013-10-27 07:13:00,
2013-10-27 03:18:00,49.1,36.0,29.86,SW,225,1.6,2.0,60,0.00,,,0.00,WUHU21623XXSP,2013-10-27 07:18:00,
2013-10-27 03:23:00,49.1,36.0,29.86,SW,225,0.0,2.9,60,0.00,,,0.00,WUHU21623XXSP,2013-10-27 07:23:00,
2013-10-27 03:28:00,48.9,36.2,29.85,SW,225,0.0,2.9,61,0.00,,,0.00,WUHU21623XXSP,2013-10-27 07:28:00,
2013-10-27 03:33:00,48.9,36.6,29.85,SW,225,0.0,1.3,62,0.00,,,0.00,WUHU21623XXSP,2013-10-27 07:33:00,
2013-10-27 03:38:00,48.7,36.4,29.86,SW,225,1.6,3.8,62,0.00,,,0.00,WUHU21623XXSP,2013-10-27 07:38:00,
2013-10-27 03:43:00,48.6,36.3,29.85,SW,225,0.0,3.8,62,0.00,,,0.00,WUHU21623XXSP,2013-10-27 07:43:00,
2013-10-27 03:48:00,48.6,36.8,29.85,SW,225,0.3,2.5,63,0.00,,,0.00,WUHU21623XXSP,2013-10-27 07:48:00,
2013-10-27 03:53:00,48.6,36.8,29.85,SW,225,0.2,3.6,63,0.00,,,0.00,WUHU21623XXSP,2013-10-27 07:53:00,
2013-10-27 03:58:00,48.4,36.6,29.85,SW,225,0.0,3.6,63,0.00,,,0.00,WUHU21623XXSP,2013-10-27 07:58:00,
2013-10-27 04:03:00,48.4,36.6,29.85,SW,225,0.4,2.5,63,0.00,,,0.00,WUHU21623XXSP,2013-10-27 08:03:00,
2013-10-27 04:08:00,48.4,37.0,29.85,SW,225,0.0,2.5,64,0.00,,,0.00,WUHU21623XXSP,2013-10-27 08:08:00,
2013-10-27 04:13:00,48.4,37.0,29.85,SW,225,1.2,2.9,64,0.00,,,0.00,WUHU21623XXSP,2013-10-27 08:13:00,
2013-10-27 04:18:00,48.2,36.8,29.85,SW,225,1.6,2.9,64,0.00,,,0.00,WUHU21623XXSP,2013-10-27 08:18:00,
2013-10-27 04:23:00,48.2,36.8,29.85,SW,225,0.0,2.2,64,0.00,,,0.00,WUHU21623XXSP,2013-10-27 08:23:00,
2013-10-27 04:28:00,48.0,36.6,29.85,SW,225,0.5,2.5,64,0.00,,,0.00,WUHU21623XXSP,2013-10-27 08:28:00,
2013-10-27 04:33:00,48.0,36.6,29.85,SW,225,0.0,2.5,64,0.00,,,0.00,WUHU21623XXSP,2013-10-27 08:33:00,
2013-10-27 04:39:00,47.8,36.4,29.86,SW,225,1.3,2.5,64,0.00,,,0.00,WUHU21623XXSP,2013-10-27 08:39:00,
2013-10-27 04:44:00,47.7,36.3,29.86,SW,225,0.5,2.7,64,0.00,,,0.00,WUHU21623XXSP,2013-10-27 08:44:00,
2013-10-27 04:49:00,47.7,36.3,29.86,SW,225,0.4,2.7,64,0.00,,,0.00,WUHU21623XXSP,2013-10-27 08:49:00,
2013-10-27 04:54:00,47.7,36.3,29.86,SW,225,0.0,1.3,64,0.00,,,0.00,WUHU21623XXSP,2013-10-27 08:54:00,
2013-10-27 04:59:00,47.3,35.9,29.86,SW,225,0.0,0.0,64,0.00,,,0.00,WUHU21623XXSP,2013-10-27 08:59:00,
2013-10-27 05:04:00,47.3,36.3,29.86,SW,225,0.0,0.0,65,0.00,,,0.00,WUHU21623XXSP,2013-10-27 09:04:00,
2013-10-27 05:09:00,47.1,36.1,29.86,SW,225,0.0,0.0,65,0.00,,,0.00,WUHU21623XXSP,2013-10-27 09:09:00,
2013-10-27 05:14:00,46.8,35.8,29.86,SW,225,0.0,0.0,65,0.00,,,0.00,WUHU21623XXSP,2013-10-27 09:14:00,
2013-10-27 05:19:00,46.6,35.6,29.86,SW,225,0.0,1.3,65,0.00,,,0.00,WUHU21623XXSP,2013-10-27 09:19:00,
2013-10-27 05:24:00,46.4,35.4,29.88,SW,225,0.0,1.3,65,0.00,,,0.00,WUHU21623XXSP,2013-10-27 09:24:00,
2013-10-27 05:29:00,46.0,35.1,29.88,SW,225,0.0,0.9,65,0.00,,,0.00,WUHU21623XXSP,2013-10-27 09:29:00,
2013-10-27 05:34:00,45.9,35.0,29.88,SW,225,0.0,0.0,65,0.00,,,0.00,WUHU21623XXSP,2013-10-27 09:34:00,
2013-10-27 05:39:00,45.9,35.0,29.88,SW,225,0.0,0.0,65,0.00,,,0.00,WUHU21623XXSP,2013-10-27 09:39:00,
2013-10-27 05:44:00,45.5,34.6,29.88,SW,225,0.0,0.0,65,0.00,,,0.00,WUHU21623XXSP,2013-10-27 09:44:00,
2013-10-27 05:49:00,45.3,34.8,29.88,SW,225,0.0,0.0,66,0.00,,,0.00,WUHU21623XXSP,2013-10-27 09:49:00,
2013-10-27 05:54:00,45.3,34.8,29.88,SW,225,0.0,1.3,66,0.00,,,0.00,WUHU21623XXSP,2013-10-27 09:54:00,
2013-10-27 05:59:00,45.0,34.5,29.89,SW,225,0.0,1.3,66,0.00,,,0.00,WUHU21623XXSP,2013-10-27 09:59:00,
2013-10-27 06:04:00,44.8,34.3,29.89,SW,225,0.0,0.0,66,0.00,,,0.00,WUHU21623XXSP,2013-10-27 10:04:00,
2013-10-27 06:09:00,44.8,34.3,29.89,SW,225,0.0,0.0,66,0.00,,,0.00,WUHU21623XXSP,2013-10-27 10:09:00,
2013-10-27 06:14:00,44.2,33.7,29.89,SW,225,0.0,0.0,66,0.00,,,0.00,WUHU21623XXSP,2013-10-27 10:14:00,
2013-10-27 06:19:00,44.2,33.7,29.89,SW,225,0.0,0.0,66,0.00,,,0.00,WUHU21623XXSP,2013-10-27 10:19:00,
2013-10-27 06:24:00,44.1,33.6,29.89,SW,225,0.0,1.1,66,0.00,,,0.00,WUHU21623XXSP,2013-10-27 10:24:00,
2013-10-27 06:29:00,43.7,33.6,29.89,SW,225,0.0,2.2,67,0.00,,,0.00,WUHU21623XXSP,2013-10-27 10:29:00,
2013-10-27 06:34:00,43.5,33.8,29.89,SW,225,0.0,2.2,68,0.00,,,0.00,WUHU21623XXSP,2013-10-27 10:34:00,
2013-10-27 06:39:00,43.5,33.8,29.89,SW,225,0.0,1.1,68,0.00,,,0.00,WUHU21623XXSP,2013-10-27 10:39:00,
2013-10-27 06:45:00,43.7,34.0,29.90,SW,225,0.0,1.1,68,0.00,,,0.00,WUHU21623XXSP,2013-10-27 10:45:00,
2013-10-27 06:50:00,43.7,34.0,29.90,SW,225,0.0,1.1,68,0.00,,,0.00,WUHU21623XXSP,2013-10-27 10:50:00,
2013-10-27 06:55:00,43.9,34.2,29.90,SW,225,0.0,1.1,68,0.00,,,0.00,WUHU21623XXSP,2013-10-27 10:55:00,
2013-10-27 07:00:00,43.9,34.2,29.90,SW,225,0.0,0.0,68,0.00,,,0.00,WUHU21623XXSP,2013-10-27 11:00:00,
2013-10-27 07:05:00,43.7,34.0,29.89,SW,225,0.0,0.0,68,0.00,,,0.00,WUHU21623XXSP,2013-10-27 11:05:00,
2013-10-27 07:10:00,43.7,34.0,29.90,SW,225,0.0,0.0,68,0.00,,,0.00,WUHU21623XXSP,2013-10-27 11:10:00,
2013-10-27 07:15:00,43.7,34.4,29.90,SW,225,0.0,1.1,69,0.00,,,0.00,WUHU21623XXSP,2013-10-27 11:15:00,
2013-10-27 07:20:00,43.5,34.2,29.90,SW,225,0.6,2.2,69,0.00,,,0.00,WUHU21623XXSP,2013-10-27 11:20:00,
2013-10-27 07:25:00,43.7,34.4,29.90,SW,225,0.4,3.4,69,0.00,,,0.00,WUHU21623XXSP,2013-10-27 11:25:00,
2013-10-27 07:30:00,43.7,34.0,29.90,SW,225,0.0,3.4,68,0.00,,,0.00,WUHU21623XXSP,2013-10-27 11:30:00,
2013-10-27 07:35:00,43.7,34.0,29.90,SW,225,0.0,2.5,68,0.00,,,0.00,WUHU21623XXSP,2013-10-27 11:35:00,
2013-10-27 07:40:00,43.5,33.8,29.91,SW,225,0.0,3.1,68,0.00,,,0.00,WUHU21623XXSP,2013-10-27 11:40:00,
2013-10-27 07:45:00,43.7,34.0,29.91,SW,225,0.8,4.7,68,0.00,,,0.00,WUHU21623XXSP,2013-10-27 11:45:00,
2013-10-27 07:50:00,43.7,34.0,29.91,SW,225,0.0,4.7,68,0.00,,,0.00,WUHU21623XXSP,2013-10-27 11:50:00,
2013-10-27 07:55:00,43.9,34.2,29.91,SW,225,0.3,3.8,68,0.00,,,0.00,WUHU21623XXSP,2013-10-27 11:55:00,
2013-10-27 08:00:00,44.1,34.4,29.92,SW,225,0.0,2.2,68,0.00,,,0.00,WUHU21623XXSP,2013-10-27 12:00:00,
2013-10-27 08:05:00,44.1,34.7,29.92,SW,225,0.4,2.7,69,0.00,,,0.00,WUHU21623XXSP,2013-10-27 12:05:00,
2013-10-27 08:10:00,44.4,35.0,29.92,SW,225,0.3,2.7,69,0.00,,,0.00,WUHU21623XXSP,2013-10-27 12:10:00,
2013-10-27 08:15:00,44.6,35.2,29.93,WNW,292,0.3,3.8,69,0.00,,,0.00,WUHU21623XXSP,2013-10-27 12:15:00,
2013-10-27 08:20:00,45.0,35.6,29.93,WNW,292,0.0,3.8,69,0.00,,,0.00,WUHU21623XXSP,2013-10-27 12:20:00,
2013-10-27 08:25:00,45.0,35.6,29.93,West,281,1.2,5.1,69,0.00,,,0.00,WUHU21623XXSP,2013-10-27 12:25:00,
2013-10-27 08:30:00,45.5,36.1,29.93,WNW,292,0.2,5.1,69,0.00,,,0.00,WUHU21623XXSP,2013-10-27 12:30:00,
2013-10-27 08:31:00,45.5,36.1,29.93,WNW,292,0.2,5.1,69,0.00,,,0.00,WUHU21623XXSP,2013-10-27 12:31:00,
2013-10-27 08:36:00,45.9,36.5,29.94,West,270,0.1,5.1,69,0.00,,,0.00,WUHU21623XXSP,2013-10-27 12:36:00,
2013-10-27 08:41:00,46.2,36.4,29.94,WSW,245,2.5,6.9,68,0.00,,,0.00,WUHU21623XXSP,2013-10-27 12:41:00,
2013-10-27 08:46:00,46.6,36.8,29.93,NNW,337,2.2,6.9,68,0.00,,,0.00,WUHU21623XXSP,2013-10-27 12:46:00,
2013-10-27 08:51:00,46.9,37.1,29.94,NW,315,0.4,3.8,68,0.00,,,0.00,WUHU21623XXSP,2013-10-27 12:51:00,
2013-10-27 08:56:00,47.5,37.3,29.94,NW,315,0.7,2.9,67,0.00,,,0.00,WUHU21623XXSP,2013-10-27 12:56:00,
2013-10-27 09:01:00,47.8,37.2,29.94,NW,315,2.0,3.8,66,0.00,,,0.00,WUHU21623XXSP,2013-10-27 13:01:00,
2013-10-27 09:06:00,48.2,37.6,29.94,WNW,292,0.5,3.8,66,0.00,,,0.00,WUHU21623XXSP,2013-10-27 13:06:00,
2013-10-27 09:11:00,48.6,37.9,29.95,NNW,337,0.0,2.9,66,0.00,,,0.00,WUHU21623XXSP,2013-10-27 13:11:00,
2013-10-27 09:16:00,48.9,37.8,29.94,SW,225,0.5,5.1,65,0.00,,,0.00,WUHU21623XXSP,2013-10-27 13:16:00,
2013-10-27 09:21:00,49.5,38.0,29.95,WSW,245,2.1,6.0,64,0.00,,,0.00,WUHU21623XXSP,2013-10-27 13:21:00,
2013-10-27 09:26:00,49.6,38.1,29.94,SSE,157,4.0,6.0,64,0.00,,,0.00,WUHU21623XXSP,2013-10-27 13:26:00,
2013-10-27 09:31:00,50.0,38.1,29.95,SW,225,1.1,5.4,63,0.00,,,0.00,WUHU21623XXSP,2013-10-27 13:31:00,
2013-10-27 09:36:00,50.2,38.3,29.95,NW,315,3.1,5.4,63,0.00,,,0.00,WUHU21623XXSP,2013-10-27 13:36:00,
2013-10-27 09:41:00,50.4,38.5,29.95,NNW,329,1.8,3.8,63,0.00,,,0.00,WUHU21623XXSP,2013-10-27 13:41:00,
2013-10-27 09:46:00,50.7,38.8,29.95,NNW,337,0.1,3.8,63,0.00,,,0.00,WUHU21623XXSP,2013-10-27 13:46:00,
2013-10-27 09:51:00,50.9,38.5,29.94,North,0,2.9,4.7,62,0.00,,,0.00,WUHU21623XXSP,2013-10-27 13:51:00,
2013-10-27 09:56:00,51.1,38.3,29.95,NNE,22,2.0,7.6,61,0.00,,,0.00,WUHU21623XXSP,2013-10-27 13:56:00,
2013-10-27 10:01:00,51.3,38.1,29.95,NNW,343,0.5,7.6,60,0.00,,,0.00,WUHU21623XXSP,2013-10-27 14:01:00,
2013-10-27 10:06:00,51.4,38.2,29.95,NNW,335,1.7,10.7,60,0.00,,,0.00,WUHU21623XXSP,2013-10-27 14:06:00,
2013-10-27 10:11:00,51.4,38.2,29.95,NNW,337,3.4,10.7,60,0.00,,,0.00,WUHU21623XXSP,2013-10-27 14:11:00,
2013-10-27 10:16:00,51.8,38.1,29.95,South,180,2.9,6.7,59,0.00,,,0.00,WUHU21623XXSP,2013-10-27 14:16:00,
2013-10-27 10:21:00,52.0,37.8,29.95,North,0,3.6,7.8,58,0.00,,,0.00,WUHU21623XXSP,2013-10-27 14:21:00,
2013-10-27 10:26:00,52.2,38.0,29.95,NW,315,5.8,7.8,58,0.00,,,0.00,WUHU21623XXSP,2013-10-27 14:26:00,
2013-10-27 10:31:00,52.3,37.7,29.95,NNW,336,1.1,6.3,57,0.00,,,0.00,WUHU21623XXSP,2013-10-27 14:31:00,
2013-10-27 10:36:00,52.5,37.9,29.95,WSW,250,4.3,11.2,57,0.00,,,0.00,WUHU21623XXSP,2013-10-27 14:36:00,
2013-10-27 10:41:00,52.7,37.6,29.95,NNW,328,1.4,11.2,56,0.00,,,0.00,WUHU21623XXSP,2013-10-27 14:41:00,
2013-10-27 10:46:00,52.7,37.6,29.95,NNE,13,1.9,7.4,56,0.00,,,0.00,WUHU21623XXSP,2013-10-27 14:46:00,
2013-10-27 10:51:00,52.9,37.3,29.96,NNE,22,6.9,6.9,55,0.00,,,0.00,WUHU21623XXSP,2013-10-27 14:51:00,
2013-10-27 10:57:00,53.2,37.6,29.96,North,0,3.3,11.4,55,0.00,,,0.00,WUHU21623XXSP,2013-10-27 14:57:00,
2013-10-27 11:02:00,53.6,38.0,29.96,North,0,1.6,11.4,55,0.00,,,0.00,WUHU21623XXSP,2013-10-27 15:02:00,
2013-10-27 11:07:00,54.0,38.3,29.96,NNW,337,1.2,8.3,55,0.00,,,0.00,WUHU21623XXSP,2013-10-27 15:07:00,
2013-10-27 11:12:00,54.3,38.6,29.96,North,0,1.6,8.3,55,0.00,,,0.00,WUHU21623XXSP,2013-10-27 15:12:00,
2013-10-27 11:17:00,54.5,38.3,29.96,NW,315,1.1,4.0,54,0.00,,,0.00,WUHU21623XXSP,2013-10-27 15:17:00,
2013-10-27 11:22:00,54.5,37.8,29.96,NW,315,2.0,4.3,53,0.00,,,0.00,WUHU21623XXSP,2013-10-27 15:22:00,
2013-10-27 11:27:00,54.9,38.2,29.96,West,267,1.0,4.3,53,0.00,,,0.00,WUHU21623XXSP,2013-10-27 15:27:00,
2013-10-27 11:32:00,55.2,38.5,29.96,West,272,1.6,5.4,53,0.00,,,0.00,WUHU21623XXSP,2013-10-27 15:32:00,
2013-10-27 11:37:00,55.6,38.4,29.96,NNE,22,2.2,5.4,52,0.00,,,0.00,WUHU21623XXSP,2013-10-27 15:37:00,
2013-10-27 11:42:00,55.6,37.9,29.96,WNW,292,1.8,5.4,51,0.00,,,0.00,WUHU21623XXSP,2013-10-27 15:42:00,
2013-10-27 11:47:00,55.8,38.0,29.96,NW,315,1.3,4.7,51,0.00,,,0.00,WUHU21623XXSP,2013-10-27 15:47:00,
2013-10-27 11:52:00,55.9,37.6,29.96,NNE,22,2.9,6.0,50,0.00,,,0.00,WUHU21623XXSP,2013-10-27 15:52:00,
2013-10-27 11:57:00,56.1,37.8,29.95,SW,216,4.4,12.5,50,0.00,,,0.00,WUHU21623XXSP,2013-10-27 15:57:00,
2013-10-27 12:02:00,56.5,38.2,29.96,NNW,335,2.3,12.5,50,0.00,,,0.00,WUHU21623XXSP,2013-10-27 16:02:00,
2013-10-27 12:07:00,56.8,38.5,29.96,North,1,2.0,10.3,50,0.00,,,0.00,WUHU21623XXSP,2013-10-27 16:07:00,
2013-10-27 12:12:00,57.0,38.1,29.95,North,350,2.4,5.4,49,0.00,,,0.00,WUHU21623XXSP,2013-10-27 16:12:00,
2013-10-27 12:17:00,57.0,38.1,29.95,NNW,337,2.7,7.2,49,0.00,,,0.00,WUHU21623XXSP,2013-10-27 16:17:00,
2013-10-27 12:22:00,57.0,37.6,29.95,NNE,12,2.1,7.2,48,0.00,,,0.00,WUHU21623XXSP,2013-10-27 16:22:00,
2013-10-27 12:27:00,56.8,36.8,29.95,NNW,337,1.1,6.5,47,0.00,,,0.00,WUHU21623XXSP,2013-10-27 16:27:00,
2013-10-27 12:32:00,57.0,37.6,29.95,NNW,337,0.5,6.0,48,0.00,,,0.00,WUHU21623XXSP,2013-10-27 16:32:00,
2013-10-27 12:37:00,57.6,37.6,29.94,NW,310,2.4,9.6,47,0.00,,,0.00,WUHU21623XXSP,2013-10-27 16:37:00,
2013-10-27 12:42:00,57.7,37.7,29.94,WSW,247,3.8,9.6,47,0.00,,,0.00,WUHU21623XXSP,2013-10-27 16:42:00,
2013-10-27 12:47:00,57.9,37.3,29.94,NNW,337,6.3,8.5,46,0.00,,,0.00,WUHU21623XXSP,2013-10-27 16:47:00,
2013-10-27 12:52:00,57.9,36.7,29.94,WNW,292,4.7,8.5,45,0.00,,,0.00,WUHU21623XXSP,2013-10-27 16:52:00,
2013-10-27 12:57:00,58.1,36.9,29.94,North,4,2.1,6.7,45,0.00,,,0.00,WUHU21623XXSP,2013-10-27 16:57:00,
2013-10-27 13:03:00,57.9,36.7,29.94,NNW,328,1.5,5.6,45,0.00,,,0.00,WUHU21623XXSP,2013-10-27 17:03:00,
2013-10-27 13:08:00,58.5,36.7,29.94,West,272,1.8,9.2,44,0.00,,,0.00,WUHU21623XXSP,2013-10-27 17:08:00,
2013-10-27 13:13:00,58.6,36.2,29.94,West,273,1.3,11.6,43,0.00,,,0.00,WUHU21623XXSP,2013-10-27 17:13:00,
2013-10-27 13:18:00,58.6,36.2,29.94,NNE,22,6.7,11.6,43,0.00,,,0.00,WUHU21623XXSP,2013-10-27 17:18:00,
2013-10-27 13:23:00,58.5,35.5,29.94,NNE,22,3.1,7.6,42,0.00,,,0.00,WUHU21623XXSP,2013-10-27 17:23:00,
2013-10-27 13:28:00,58.3,35.3,29.94,North,10,2.4,7.6,42,0.00,,,0.00,WUHU21623XXSP,2013-10-27 17:28:00,
2013-10-27 13:33:00,58.3,35.3,29.93,NNW,338,3.0,9.6,42,0.00,,,0.00,WUHU21623XXSP,2013-10-27 17:33:00,
2013-10-27 13:38:00,58.5,35.5,29.93,North,0,2.9,9.6,42,0.00,,,0.00,WUHU21623XXSP,2013-10-27 17:38:00,
2013-10-27 13:43:00,58.1,35.1,29.94,NNE,18,1.4,8.3,42,0.00,,,0.00,WUHU21623XXSP,2013-10-27 17:43:00,
2013-10-27 13:48:00,58.1,35.7,29.93,ENE,61,0.4,7.8,43,0.00,,,0.00,WUHU21623XXSP,2013-10-27 17:48:00,
2013-10-27 13:53:00,57.9,34.9,29.93,NE,45,4.7,7.8,42,0.00,,,0.00,WUHU21623XXSP,2013-10-27 17:53:00,
2013-10-27 13:58:00,58.1,35.1,29.92,NNW,341,1.7,6.5,42,0.00,,,0.00,WUHU21623XXSP,2013-10-27 17:58:00,
2013-10-27 14:03:00,58.3,35.3,29.92,NNE,15,2.0,7.4,42,0.00,,,0.00,WUHU21623XXSP,2013-10-27 18:03:00,
2013-10-27 14:08:00,58.1,34.5,29.93,NW,319,2.5,7.4,41,0.00,,,0.00,WUHU21623XXSP,2013-10-27 18:08:00,
2013-10-27 14:13:00,57.9,34.3,29.93,North,7,1.9,5.8,41,0.00,,,0.00,WUHU21623XXSP,2013-10-27 18:13:00,
2013-10-27 14:18:00,57.7,34.1,29.93,NW,315,4.0,6.5,41,0.00,,,0.00,WUHU21623XXSP,2013-10-27 18:18:00,
2013-10-27 14:23:00,57.6,33.4,29.93,North,353,2.3,6.5,40,0.00,,,0.00,WUHU21623XXSP,2013-10-27 18:23:00,
2013-10-27 14:28:00,57.6,34.0,29.93,SW,234,4.5,9.8,41,0.00,,,0.00,WUHU21623XXSP,2013-10-27 18:28:00,
2013-10-27 14:33:00,57.7,33.5,29.94,NW,323,2.1,9.8,40,0.00,,,0.00,WUHU21623XXSP,2013-10-27 18:33:00,
2013-10-27 14:38:00,57.9,33.7,29.94,North,0,6.7,6.7,40,0.00,,,0.00,WUHU21623XXSP,2013-10-27 18:38:00,
2013-10-27 14:43:00,57.9,34.3,29.94,WSW,247,5.8,6.7,41,0.00,,,0.00,WUHU21623XXSP,2013-10-27 18:43:00,
2013-10-27 14:48:00,57.6,33.4,29.93,NNW,346,2.5,6.9,40,0.00,,,0.00,WUHU21623XXSP,2013-10-27 18:48:00,
2013-10-27 14:53:00,57.6,34.0,29.94,NNW,337,0.9,6.9,41,0.00,,,0.00,WUHU21623XXSP,2013-10-27 18:53:00,
2013-10-27 14:58:00,57.6,33.4,29.94,NNW,327,2.6,5.6,40,0.00,,,0.00,WUHU21623XXSP,2013-10-27 18:58:00,
2013-10-27 15:03:00,57.4,33.2,29.94,NNW,337,3.1,8.1,40,0.00,,,0.00,WUHU21623XXSP,2013-10-27 19:03:00,
2013-10-27 15:09:00,57.4,33.2,29.94,North,357,3.3,8.1,40,0.00,,,0.00,WUHU21623XXSP,2013-10-27 19:09:00,
2013-10-27 15:14:00,57.4,33.2,29.94,WSW,247,6.7,7.6,40,0.00,,,0.00,WUHU21623XXSP,2013-10-27 19:14:00,
2013-10-27 15:19:00,57.4,32.6,29.94,NNW,329,1.4,7.6,39,0.00,,,0.00,WUHU21623XXSP,2013-10-27 19:19:00,
2013-10-27 15:24:00,57.6,33.4,29.94,South,180,2.5,6.7,40,0.00,,,0.00,WUHU21623XXSP,2013-10-27 19:24:00,
2013-10-27 15:29:00,57.7,32.9,29.95,SW,225,1.1,8.1,39,0.00,,,0.00,WUHU21623XXSP,2013-10-27 19:29:00,
2013-10-27 15:34:00,57.4,32.6,29.94,NW,315,1.8,8.3,39,0.00,,,0.00,WUHU21623XXSP,2013-10-27 19:34:00,
2013-10-27 15:39:00,57.0,32.9,29.95,WNW,292,2.2,8.3,40,0.00,,,0.00,WUHU21623XXSP,2013-10-27 19:39:00,
2013-10-27 15:44:00,56.8,32.7,29.95,NNW,337,2.5,8.9,40,0.00,,,0.00,WUHU21623XXSP,2013-10-27 19:44:00,
2013-10-27 15:49:00,56.7,32.6,29.95,NNW,329,1.9,8.9,40,0.00,,,0.00,WUHU21623XXSP,2013-10-27 19:49:00,
2013-10-27 15:54:00,56.5,32.4,29.95,NNE,22,6.0,12.8,40,0.00,,,0.00,WUHU21623XXSP,2013-10-27 19:54:00,
2013-10-27 15:59:00,56.3,32.2,29.95,North,10,3.2,12.8,40,0.00,,,0.00,WUHU21623XXSP,2013-10-27 19:59:00,
2013-10-27 16:04:00,56.1,32.7,29.95,NW,315,2.7,10.5,41,0.00,,,0.00,WUHU21623XXSP,2013-10-27 20:04:00,
2013-10-27 16:09:00,55.8,32.4,29.95,WNW,292,1.6,6.0,41,0.00,,,0.00,WUHU21623XXSP,2013-10-27 20:09:00,
2013-10-27 16:14:00,55.8,32.4,29.96,NW,315,0.9,6.0,41,0.00,,,0.00,WUHU21623XXSP,2013-10-27 20:14:00,
2013-10-27 16:19:00,55.8,31.8,29.96,WNW,292,3.1,4.7,40,0.00,,,0.00,WUHU21623XXSP,2013-10-27 20:19:00,
2013-10-27 16:24:00,55.8,32.4,29.96,North,355,1.7,4.7,41,0.00,,,0.00,WUHU21623XXSP,2013-10-27 20:24:00,
2013-10-27 16:29:00,55.8,32.4,29.96,NW,325,1.1,5.1,41,0.00,,,0.00,WUHU21623XXSP,2013-10-27 20:29:00,
2013-10-27 16:34:00,55.4,32.0,29.96,NNW,337,0.5,5.1,41,0.00,,,0.00,WUHU21623XXSP,2013-10-27 20:34:00,
2013-10-27 16:39:00,55.2,31.9,29.96,NW,314,2.0,7.6,41,0.00,,,0.00,WUHU21623XXSP,2013-10-27 20:39:00,
2013-10-27 16:44:00,55.0,31.7,29.96,NW,315,0.0,7.6,41,0.00,,,0.00,WUHU21623XXSP,2013-10-27 20:44:00,
2013-10-27 16:49:00,55.0,31.7,29.97,NNW,337,4.7,6.3,41,0.00,,,0.00,WUHU21623XXSP,2013-10-27 20:49:00,
2013-10-27 16:54:00,55.0,32.3,29.96,South,180,3.6,6.3,42,0.00,,,0.00,WUHU21623XXSP,2013-10-27 20:54:00,
2013-10-27 16:59:00,54.9,32.2,29.96,NNW,334,2.2,6.3,42,0.00,,,0.00,WUHU21623XXSP,2013-10-27 20:59:00,
2013-10-27 17:04:00,54.7,32.0,29.97,NNE,22,2.7,5.6,42,0.00,,,0.00,WUHU21623XXSP,2013-10-27 21:04:00,
2013-10-27 17:09:00,54.7,32.6,29.97,North,0,1.6,4.0,43,0.00,,,0.00,WUHU21623XXSP,2013-10-27 21:09:00,
2013-10-27 17:15:00,54.5,32.4,29.97,NNW,337,0.3,6.5,43,0.00,,,0.00,WUHU21623XXSP,2013-10-27 21:15:00,
2013-10-27 17:20:00,54.3,32.3,29.97,NNW,337,2.7,6.5,43,0.00,,,0.00,WUHU21623XXSP,2013-10-27 21:20:00,
2013-10-27 17:25:00,54.1,32.1,29.98,South,180,1.6,6.3,43,0.00,,,0.00,WUHU21623XXSP,2013-10-27 21:25:00,
2013-10-27 17:30:00,54.0,32.0,29.98,NW,315,0.8,6.3,43,0.00,,,0.00,WUHU21623XXSP,2013-10-27 21:30:00,
2013-10-27 17:35:00,54.0,32.0,29.98,NW,315,0.3,4.9,43,0.00,,,0.00,WUHU21623XXSP,2013-10-27 21:35:00,
2013-10-27 17:40:00,53.8,32.4,29.99,NW,315,0.1,2.7,44,0.00,,,0.00,WUHU21623XXSP,2013-10-27 21:40:00,
2013-10-27 17:45:00,53.4,32.0,29.99,NW,315,0.3,3.6,44,0.00,,,0.00,WUHU21623XXSP,2013-10-27 21:45:00,
2013-10-27 17:50:00,53.2,31.8,29.99,NW,315,0.1,3.6,44,0.00,,,0.00,WUHU21623XXSP,2013-10-27 21:50:00,
2013-10-27 17:55:00,53.2,32.4,30.00,West,270,0.9,3.4,45,0.00,,,0.00,WUHU21623XXSP,2013-10-27 21:55:00,
2013-10-27 18:00:00,53.1,32.3,30.00,West,270,0.0,3.4,45,0.00,,,0.00,WUHU21623XXSP,2013-10-27 22:00:00,
2013-10-27 18:05:00,52.9,32.1,30.00,West,270,0.0,1.8,45,0.00,,,0.00,WUHU21623XXSP,2013-10-27 22:05:00,
2013-10-27 18:10:00,52.7,32.5,30.00,West,270,0.0,2.2,46,0.00,,,0.00,WUHU21623XXSP,2013-10-27 22:10:00,
2013-10-27 18:15:00,52.5,31.8,30.00,West,270,0.2,2.2,45,0.00,,,0.00,WUHU21623XXSP,2013-10-27 22:15:00,
2013-10-27 18:20:00,52.3,32.2,30.00,West,270,0.0,1.3,46,0.00,,,0.00,WUHU21623XXSP,2013-10-27 22:20:00,
2013-10-27 18:25:00,52.3,32.7,30.00,West,270,0.0,0.0,47,0.00,,,0.00,WUHU21623XXSP,2013-10-27 22:25:00,
2013-10-27 18:30:00,52.2,32.6,30.01,West,270,0.0,0.0,47,0.00,,,0.00,WUHU21623XXSP,2013-10-27 22:30:00,
2013-10-27 18:35:00,52.0,32.4,30.01,West,270,0.0,0.0,47,0.00,,,0.00,WUHU21623XXSP,2013-10-27 22:35:00,
2013-10-27 18:40:00,51.8,32.8,30.02,West,270,0.0,3.4,48,0.00,,,0.00,WUHU21623XXSP,2013-10-27 22:40:00,
2013-10-27 18:45:00,51.6,32.6,30.02,West,270,0.0,3.4,48,0.00,,,0.00,WUHU21623XXSP,2013-10-27 22:45:00,
2013-10-27 18:50:00,51.4,32.4,30.02,West,270,0.0,1.1,48,0.00,,,0.00,WUHU21623XXSP,2013-10-27 22:50:00,
2013-10-27 18:55:00,51.3,32.8,30.02,West,270,0.0,0.0,49,0.00,,,0.00,WUHU21623XXSP,2013-10-27 22:55:00,
2013-10-27 19:00:00,51.3,32.8,30.02,West,270,0.0,0.0,49,0.00,,,0.00,WUHU21623XXSP,2013-10-27 23:00:00,
2013-10-27 19:05:00,50.9,32.5,30.03,West,270,0.0,0.0,49,0.00,,,0.00,WUHU21623XXSP,2013-10-27 23:05:00,
2013-10-27 19:10:00,50.9,32.5,30.03,West,270,0.0,0.0,49,0.00,,,0.00,WUHU21623XXSP,2013-10-27 23:10:00,
2013-10-27 19:15:00,50.7,32.8,30.03,West,270,0.0,0.0,50,0.00,,,0.00,WUHU21623XXSP,2013-10-27 23:15:00,
2013-10-27 19:20:00,50.7,33.3,30.03,West,270,0.0,0.0,51,0.00,,,0.00,WUHU21623XXSP,2013-10-27 23:20:00,
2013-10-27 19:25:00,50.4,33.0,30.03,West,270,0.0,0.0,51,0.00,,,0.00,WUHU21623XXSP,2013-10-27 23:25:00,
2013-10-27 19:30:00,50.4,33.0,30.03,West,270,0.0,0.0,51,0.00,,,0.00,WUHU21623XXSP,2013-10-27 23:30:00,
2013-10-27 19:35:00,50.2,32.9,30.03,West,270,0.0,0.0,51,0.00,,,0.00,WUHU21623XXSP,2013-10-27 23:35:00,
2013-10-27 19:40:00,50.2,32.9,30.03,West,270,0.0,0.0,51,0.00,,,0.00,WUHU21623XXSP,2013-10-27 23:40:00,
2013-10-27 19:45:00,49.8,32.5,30.03,West,270,0.0,0.0,51,0.00,,,0.00,WUHU21623XXSP,2013-10-27 23:45:00,
2013-10-27 19:50:00,49.5,32.7,30.05,West,270,0.0,0.0,52,0.00,,,0.00,WUHU21623XXSP,2013-10-27 23:50:00,
2013-10-27 19:55:00,49.3,32.5,30.05,West,270,0.0,0.0,52,0.00,,,0.00,WUHU21623XXSP,2013-10-27 23:55:00,
2013-10-27 20:00:00,48.9,32.1,30.05,West,270,0.0,0.0,52,0.00,,,0.00,WUHU21623XXSP,2013-10-28 00:00:00,
2013-10-27 20:05:00,48.9,32.1,30.05,West,270,0.0,1.1,52,0.00,,,0.00,WUHU21623XXSP,2013-10-28 00:05:00,
2013-10-27 20:10:00,48.6,31.9,30.05,West,270,0.0,1.1,52,0.00,,,0.00,WUHU21623XXSP,2013-10-28 00:10:00,
2013-10-27 20:15:00,48.4,31.7,30.05,West,270,0.0,0.0,52,0.00,,,0.00,WUHU21623XXSP,2013-10-28 00:15:00,
2013-10-27 20:20:00,48.2,32.0,30.05,West,270,0.0,0.0,53,0.00,,,0.00,WUHU21623XXSP,2013-10-28 00:20:00,
2013-10-27 20:25:00,47.8,31.6,30.05,West,270,0.0,0.0,53,0.00,,,0.00,WUHU21623XXSP,2013-10-28 00:25:00,
2013-10-27 20:30:00,47.8,31.6,30.06,West,270,0.0,0.0,53,0.00,,,0.00,WUHU21623XXSP,2013-10-28 00:30:00,
2013-10-27 20:35:00,47.7,32.0,30.06,West,270,0.0,0.0,54,0.00,,,0.00,WUHU21623XXSP,2013-10-28 00:35:00,
2013-10-27 20:40:00,47.3,31.6,30.06,West,270,0.0,0.0,54,0.00,,,0.00,WUHU21623XXSP,2013-10-28 00:40:00,
2013-10-27 20:45:00,47.3,31.6,30.06,West,270,0.0,0.0,54,0.00,,,0.00,WUHU21623XXSP,2013-10-28 00:45:00,
2013-10-27 20:50:00,47.3,31.6,30.06,West,270,0.0,0.0,54,0.00,,,0.00,WUHU21623XXSP,2013-10-28 00:50:00,
2013-10-27 20:55:00,47.1,31.4,30.06,West,270,0.0,0.0,54,0.00,,,0.00,WUHU21623XXSP,2013-10-28 00:55:00,
2013-10-27 21:00:00,47.1,31.4,30.06,West,270,0.0,0.0,54,0.00,,,0.00,WUHU21623XXSP,2013-10-28 01:00:00,
2013-10-27 21:05:00,46.9,31.7,30.07,West,270,0.0,0.0,55,0.00,,,0.00,WUHU21623XXSP,2013-10-28 01:05:00,
2013-10-27 21:10:00,46.8,31.6,30.07,West,270,0.0,0.0,55,0.00,,,0.00,WUHU21623XXSP,2013-10-28 01:10:00,
2013-10-27 21:15:00,46.8,31.6,30.07,West,270,0.0,0.0,55,0.00,,,0.00,WUHU21623XXSP,2013-10-28 01:15:00,
2013-10-27 21:20:00,46.6,31.9,30.07,West,270,0.0,0.0,56,0.00,,,0.00,WUHU21623XXSP,2013-10-28 01:20:00,
2013-10-27 21:26:00,46.2,31.5,30.07,West,270,0.0,0.0,56,0.00,,,0.00,WUHU21623XXSP,2013-10-28 01:26:00,
2013-10-27 21:31:00,46.0,31.3,30.07,West,270,0.0,0.0,56,0.00,,,0.00,WUHU21623XXSP,2013-10-28 01:31:00,
2013-10-27 21:36:00,46.0,31.3,30.08,West,270,0.0,0.0,56,0.00,,,0.00,WUHU21623XXSP,2013-10-28 01:36:00,
2013-10-27 21:41:00,45.9,31.2,30.08,West,270,0.0,0.0,56,0.00,,,0.00,WUHU21623XXSP,2013-10-28 01:41:00,
2013-10-27 21:46:00,46.0,31.8,30.08,West,270,0.0,0.0,57,0.00,,,0.00,WUHU21623XXSP,2013-10-28 01:46:00,
2013-10-27 21:51:00,45.9,31.7,30.09,West,270,0.0,0.0,57,0.00,,,0.00,WUHU21623XXSP,2013-10-28 01:51:00,
2013-10-27 21:56:00,45.7,31.5,30.09,West,270,0.0,0.0,57,0.00,,,0.00,WUHU21623XXSP,2013-10-28 01:56:00,
2013-10-27 22:01:00,45.5,31.7,30.09,West,270,0.0,0.0,58,0.00,,,0.00,WUHU21623XXSP,2013-10-28 02:01:00,
2013-10-27 22:06:00,45.5,31.7,30.09,West,270,0.0,0.0,58,0.00,,,0.00,WUHU21623XXSP,2013-10-28 02:06:00,
2013-10-27 22:11:00,45.3,32.0,30.10,West,270,0.0,0.0,59,0.00,,,0.00,WUHU21623XXSP,2013-10-28 02:11:00,
2013-10-27 22:16:00,45.0,31.7,30.10,West,270,0.0,0.0,59,0.00,,,0.00,WUHU21623XXSP,2013-10-28 02:16:00,
2013-10-27 22:21:00,45.0,31.7,30.10,West,270,0.0,0.0,59,0.00,,,0.00,WUHU21623XXSP,2013-10-28 02:21:00,
2013-10-27 22:26:00,45.0,32.1,30.10,West,270,0.0,0.0,60,0.00,,,0.00,WUHU21623XXSP,2013-10-28 02:26:00,
2013-10-27 22:31:00,44.8,31.9,30.10,West,270,0.0,0.0,60,0.00,,,0.00,WUHU21623XXSP,2013-10-28 02:31:00,
2013-10-27 22:36:00,44.4,31.5,30.11,West,270,0.0,0.0,60,0.00,,,0.00,WUHU21623XXSP,2013-10-28 02:36:00,
2013-10-27 22:41:00,44.4,32.0,30.10,West,270,0.0,0.0,61,0.00,,,0.00,WUHU21623XXSP,2013-10-28 02:41:00,
2013-10-27 22:46:00,44.2,31.8,30.11,West,270,0.0,0.0,61,0.00,,,0.00,WUHU21623XXSP,2013-10-28 02:46:00,
2013-10-27 22:51:00,44.1,31.7,30.11,West,270,0.0,0.0,61,0.00,,,0.00,WUHU21623XXSP,2013-10-28 02:51:00,
2013-10-27 22:56:00,43.9,31.9,30.11,West,270,0.0,0.0,62,0.00,,,0.00,WUHU21623XXSP,2013-10-28 02:56:00,
2013-10-27 23:01:00,43.7,31.7,30.11,West,270,0.0,0.0,62,0.00,,,0.00,WUHU21623XXSP,2013-10-28 03:01:00,
2013-10-27 23:06:00,43.7,31.7,30.11,West,270,0.0,0.0,62,0.00,,,0.00,WUHU21623XXSP,2013-10-28 03:06:00,
2013-10-27 23:11:00,43.7,31.7,30.11,West,270,0.0,0.0,62,0.00,,,0.00,WUHU21623XXSP,2013-10-28 03:11:00,
2013-10-27 23:16:00,43.5,31.9,30.11,West,270,0.0,0.0,63,0.00,,,0.00,WUHU21623XXSP,2013-10-28 03:16:00,
2013-10-27 23:21:00,43.3,31.7,30.10,West,270,0.0,0.0,63,0.00,,,0.00,WUHU21623XXSP,2013-10-28 03:21:00,
2013-10-27 23:26:00,43.3,32.1,30.10,West,270,0.0,0.0,64,0.00,,,0.00,WUHU21623XXSP,2013-10-28 03:26:00,
2013-10-27 23:32:00,43.2,32.0,30.10,West,270,0.0,0.0,64,0.00,,,0.00,WUHU21623XXSP,2013-10-28 03:32:00,
2013-10-27 23:37:00,43.2,32.0,30.10,West,270,0.0,0.0,64,0.00,,,0.00,WUHU21623XXSP,2013-10-28 03:37:00,
2013-10-27 23:42:00,43.0,32.2,30.10,West,270,0.0,0.0,65,0.00,,,0.00,WUHU21623XXSP,2013-10-28 03:42:00,
2013-10-27 23:47:00,43.0,32.2,30.11,West,270,0.0,0.0,65,0.00,,,0.00,WUHU21623XXSP,2013-10-28 03:47:00,
2013-10-27 23:52:00,43.0,32.6,30.13,West,270,0.0,0.0,66,0.00,,,0.00,WUHU21623XXSP,2013-10-28 03:52:00,
2013-10-27 23:57:00,43.0,32.6,30.13,West,270,0.0,0.0,66,0.00,,,0.00,WUHU21623XXSP,2013-10-28 03:57:00,